www.pogodaiklimat.ru

Погода и климат >> Архив погоды >> Южная Африка >> Worcester


ПОГОДА в Worcester

  • Прогноз погоды в Worcester
  • Монитор погоды в Worcester
  • Климат города

АРХИВ ПОГОДЫ в Worcester

Время (UTC), дата Ветер
(напр.,м/с)
 
Видим.   Явления Облачность Т
(С)
Тd
(С)
f
(%)
Тe
(С)
Тes
(С)
Комфортность P
(гПа)
Po
(гПа)
Тmin
(С)
Tmax
(С)
R
(мм)
R24
(мм)
S
(см)
15 14.10 З 11 н/о н/о +22.6 +8.5 40 +24 +24 комфорт 854.1 988.7 +22.1 +24.5
18 14.10 З 10 н/о н/о +17.8 +9.5 58 +17 +17 854.3 991.4 +17.8 +24.5
21 14.10 З 8 н/о н/о +15.8 +9.5 66 +14 +14 854.6 992.8 +15.8 +24.5
00 15.10 З 8 н/о н/о +15.8 +8.1 60 +14 +14 854.6 992.7 +15.3 +24.5
03 15.10 СЗ 7 н/о н/о +15.1 +8.6 65 +13 +13 855.5 994.1 +14.9 +24.5
06 15.10 З 8 н/о н/о +17.9 +9.8 59 +17 +17 858.1 995.6 +14.9
09 15.10 З 7 н/о н/о +21.8 +9.5 45 +23 +23 комфорт 860.0 995.6 +14.9 +21.8
12 15.10 З 8 н/о н/о +24.3 +8.5 37 +25 +25 комфорт 860.6 995.0 +14.9 +24.3
15 15.10 З 7 н/о н/о +23.6 +8.2 37 +24 +24 комфорт 860.1 994.8 +23.2 +24.6
18 15.10 ЮВ 5 н/о н/о +16.3 +10.6 69 +15 +15 858.3 996.7 +16.3 +24.6
21 15.10 Ю 3 н/о н/о +15.5 +9.6 68 +15 +15 859.5 998.4 +15.2 +24.6
00 16.10 ЮВ 2 н/о н/о +13.2 +9.1 76 +12 +12 857.7 997.7 +13.2 +24.6
03 16.10 В 1 н/о н/о +13.4 +8.9 74 +14 +14 857.6 997.4 +12.3 +24.6
06 16.10 ЮВ 2 н/о н/о +15.2 +9.1 67 +15 +15 859.2 998.3 +12.3
12 16.10 Ю 2 н/о н/о +22.2 +7.0 37 +23 +23 комфорт 860.0 995.4 +12.3 +22.2
18 16.10 ЮВ 4 н/о н/о +17.2 +9.7 61 +17 +17 859.3 997.3 +17.2 +23.8
03 17.10 В 2 н/о н/о +12.2 +9.4 83 +12 +12 856.5 996.9 +12.2 +23.8
06 17.10 В 3 н/о н/о +16.0 +10.3 69 +16 +16 859.3 997.9 +12.0
09 17.10 ЮВ 4 н/о н/о +21.3 +7.6 41 +22 +22 комфорт 860.7 996.6 +12.0 +21.3
12 17.10 Ю 4 н/о н/о +24.8 +5.3 28 +24 +24 комфорт 860.3 994.4 +12.0 +24.8
15 17.10 ЮВ 3 н/о н/о +26.6 +5.2 25 +26 +26 жарко 859.4 992.5 +24.9 +26.9
18 17.10 В 2 н/о н/о +19.9 +9.6 51 +22 +22 комфорт 857.3 993.6 +19.9 +26.9
21 17.10 В 2 н/о н/о +16.2 +9.4 64 +17 +17 855.9 994.0 +16.2 +26.9
00 18.10 Ю 1 н/о н/о +14.4 +9.0 70 +15 +15 853.6 992.4 +14.4 +26.9
03 18.10 штиль 0 н/о н/о +12.6 +8.5 76 +12 +12 851.5 990.9 +12.6 +26.9
06 18.10 СЗ 1 н/о н/о +15.3 +10.5 73 +16 +16 853.1 991.4 +11.3
09 18.10 З 6 н/о н/о +26.7 +8.4 31 +27 +27 жарко 857.3 990.2 +11.3 +26.7
12 18.10 З 8 н/о н/о +29.2 +8.0 26 +28 +28 жарко 856.3 987.9 +11.3 +29.8 0.2
15 18.10 З 5 н/о н/о +26.8 +7.5 29 +26 +26 жарко 855.3 987.9 +26.8 +29.8
18 18.10 З 4 н/о н/о +21.7 +5.7 35 +22 +22 комфорт 854.9 990.0 +21.6 +29.8
21 18.10 З 4 н/о н/о +18.3 +6.2 45 +18 +18 854.8 991.7 +18.3 +29.8
00 19.10 З 2 н/о н/о +15.2 +10.6 74 +15 +15 854.5 993.0 +15.2 +29.8 0.2
03 19.10 ЮВ 3 н/о н/о +15.4 +10.4 72 +15 +15 855.8 994.3 +15.0 +29.8
06 19.10 ЮВ 6 н/о н/о +16.4 +7.9 57 +15 +15 858.8 997.1 +15.0
09 19.10 В 3 н/о н/о +19.0 +9.3 53 +20 +20 861.6 998.9 +15.0 +19.1
12 19.10 ЮВ 4 н/о н/о +22.3 +7.4 38 +23 +23 комфорт 863.1 998.8 +15.0 +22.3
15 19.10 ЮВ 5 н/о н/о +22.6 +5.2 32 +23 +23 комфорт 863.8 999.4 +21.9 +23.5
18 19.10 В 6 н/о н/о +17.0 +6.9 51 +16 +16 863.9 1002.6 +17.0 +23.5
21 19.10 ЮВ 4 н/о н/о +14.1 +8.7 70 +13 +13 863.9 1004.2 +14.1 +23.5
00 20.10 В 3 н/о н/о +13.9 +9.7 76 +13 +13 864.3 1004.8 +13.1 +23.5

 

Местоположение метеостанции Worcester (Южная Африка): широта -33.61 долгота 19.47 высота над уровнем моря 270 м.

В архиве по умолчанию представлена погода в Worcester за последнюю неделю. Архивные данные за месяц целиком и за предыдущие месяцы, начиная с января 2011 года, Вы можете получить, выбрав интересующий диапазон дат из раскрывающегося списка и нажав кнопку "Ввод!".


*Определитесь, кто Вы:
робот инопланетянин человек

Внимание! Время в таблицах - всемирное. Для получения местного времени необходимо прибавить поправку, которая в Worcester равна 2 ч.

Смотрите также архив погоды в соседних городах и на ближайших метеорологических станциях:

Погода в Robertson (Южная Африка) (45 км)
Погода в Paarl (Южная Африка) (48 км)
Погода в Malmesbury (Южная Африка) (72 км)
Погода в Tigerhoek (Южная Африка) (72 км)
Погода в Excelsior Ceres (Южная Африка) (72 км)
Погода в Strand (Южная Африка) (82 км)
Погода в Cape Town Airport (Южная Африка) (89 км)
Погода в Cape Town Int Airport (Южная Африка) (89 км)
Погода в Hermanus (Южная Африка) (94 км)
Погода в Ysterplant (Южная Африка) (95 км)

Пояснения к столбцам:

Ветер - указаны скорость ветра в м/с - средняя за 10 мин, порывы в срок и между сроками (в фигурных скобках) и направление, откуда дует ветер: С - северный, СВ - северо-восточный, В - восточный, ЮВ - юго-восточный, Ю - южный, ЮЗ - юго-западный, З - западный, СЗ - северо-западный.
Видимость - горизонтальная дальность видимости в метрах или километрах. При видимости от 1 до 10 км при отсутствии осадков обычно наблюдается дымка, при ухудшении видимости до 1 км и менее - туман. В сухую погоду видимость может ухудшаться дымом, пылью или мглою.
Явления - указаны атмосферные явления, наблюдавшиеся в срок или в последний час перед сроком; фигурными скобками обозначены явления, наблюдавшиеся между сроками (за 1-3 часа до срока); квадратными скобками обозначены град или гололедные отложения с указанием их диаметра в мм.
Облачность - указаны через наклонную черту общая и нижняя облачность в баллах и высота нижней границы облаков в метрах; квадратными скобками обозначены формы облаков: Ci - перистые, Cs - перисто-слоистые, Cc - перисто-кучевые, Ac - высококучевые, As - высокослоистые, Sc - слоисто-кучевые, Ns - слоисто-дождевые, Cu - кучевые, Cb - кучево-дождевые. Подробнее классификацию облаков см. в Атласе облаков (PDF).
T - Температура воздуха - температура, измеренная на высоте 2 м над землей.
Td - Температура точки росы - температура, при понижении до которой содержащийся в воздухе водяной пар достигнет насыщения.
f - Относительная влажность воздуха - влажноcть воздуха, измеренная на высоте 2 м над землей.
Te - Эффективная температура - температура, которую ощущает одетый по сезону человек в тени. Характеристика душности погоды. При расчете учитывается влияние влажности воздуха и скорости ветра на теплоощущения человека.
Tes - Эффективная температура на солнце - температура, которую ощущает человек, с поправкой на солнечный нагрев. Характеристика знойности погоды. Зависит от высоты солнца над горизонтом, облачности и скорости ветра. Ночью, в пасмурную погоду, а также при ветре 12 м/с и более поправка равна нулю.
P - Атмосферное давление - приведенное к уровню моря атмосферное давление.
Po - Атмосферное давление - измеренное на уровне метеостанции атмосферное давление.
Tmin - Минимальная температура - минимум температуры воздуха на высоте 2 м над землей.
Tmax - Максимальная температура - максимум температуры воздуха на высоте 2 м над землей.
R - Количество осадков - Количество выпавших осадков за период времени, мм. При наведении курсора мыши на число - период времени, за который выпало указанное количество осадков.
R24 - Количество осадков - Количество выпавших осадков за 24 часа, мм.
S - Снежный покров - Высота снежного покрова, см. При наведении курсора мыши на число - состояние снежного покрова и степень покрытия местности в баллах.